Tracking 18785 objects as of 27-July-2017
HD Live streaming from Space Station
objects crossing your sky now
MAYAK may become the brightest orbital object in the night sky!
Where is MAYAK now?
How to spot MAYAK

MAQSAT H

Track MAQSAT H now!
10-day predictions
MAQSAT H is classified as:


NORAD ID: 25023
Int'l Code: 1997-066A
Perigee: 574.2 km
Apogee: 26,418.9 km
Inclination: 7.9 °
Period: 464.5 minutes
Semi major axis: 19867 km
RCS: 21.0323 m2 (large)
Launch date: October 30, 1997
Source: European Space Agency (ESA)
Launch site: FRENCH GUIANA (FRGUI)
Your satellite tracking list
Your tracking list is empty





NASA's NSSDC Master Catalog

Two Line Element Set (TLE):
1 25023U 97066A   17207.89354771 +.00000117 +00000-0 +13163-2 0  9996
2 25023 007.8772 355.4633 6504243 177.7192 164.9002 03.10018105223101
Source of the keplerian elements: AFSPC